{"data":{"norad_id":64766,"intl_designator":"2025-147M","name":"STARLINK-34645","alt_names":[],"object_type":"PAYLOAD","status":"ACTIVE","operator":null,"country":"US","launch_date":"2025-07-08","launch_site_code":"AFETR","launch_vehicle":null,"mission":null,"orbit_class":"UNKNOWN","rcs_meters":null,"size_class":null,"mass_kg":null,"dimensions":null,"purposes":["comms"],"wikipedia_slug":null,"has_3d_model":false,"image_url":null,"decayed_at":null,"tle_current":{"epoch":"2026-05-25T00:31:04.340064Z","epoch_age_seconds":80136,"freshness":"FRESH","line1":"1 64766U 25147M   26145.02157801  .00019174  00000+0  65773-3 0  9992","line2":"2 64766  53.1580 248.5393 0001211  93.1656 266.9483 15.30205423 50437","mean_motion":15.30205423,"eccentricity":0.0001211,"inclination_deg":53.158,"raan_deg":248.5393,"arg_perigee_deg":93.1656,"mean_anomaly_deg":266.9483,"bstar":0.00065773,"rev_number":5043,"period_min":94.105012200052,"perigee_km":474.3689383919,"apogee_km":476.0288163414,"semimajor_km":6853.3358773666,"source":"CELESTRAK","updated_at":"2026-05-25T13:38:20.555885Z"}}}